| time (UTC) | temp F | wind direction | speed knots | gust knots | rain 1hr in | rain 24hr in | rain mn in | humidity % | barometer mb |
| 20260507155902 | 56 | 309 | 2.6 | 5.2 | 0.00 | 0.21 | 0.00 | 30 | 1023.0 |
| 20260507145900 | 51 | 269 | 2.6 | 6.1 | 0.00 | 0.21 | 0.00 | 37 | 1022.8 |
| 20260507135856 | 46 | 327 | 0.9 | 1.7 | 0.00 | 0.21 | 0.00 | 42 | 1022.2 |
| 20260507125852 | 39 | 57 | 0.0 | 0.9 | 0.00 | 0.21 | 0.00 | 51 | 1020.6 |
| 20260507115844 | 35 | 73 | 0.0 | 0.9 | 0.00 | 0.21 | 0.00 | 54 | 1020.8 |
| 20260507105836 | 34 | 49 | 0.0 | 0.0 | 0.00 | 0.21 | 0.00 | 57 | 1020.6 |
| 20260507095858 | 33 | 49 | 0.0 | 0.9 | 0.00 | 0.21 | 0.00 | 60 | 1020.3 |
| 20260507085850 | 32 | 52 | 0.0 | 1.7 | 0.00 | 0.21 | 0.00 | 72 | 1020.4 |
| 20260507075843 | 29 | 82 | 0.0 | 0.9 | 0.00 | 0.21 | 0.00 | 93 | 1019.9 |
| 20260507065843 | 27 | 119 | 0.0 | 0.9 | 0.00 | 0.21 | 0.00 | 93 | 1018.7 |
| 20260507055842 | 29 | 119 | 0.0 | 1.7 | 0.00 | 0.21 | 0.00 | 93 | 1019.2 |
| 20260507045834 | 30 | 116 | 0.0 | 2.6 | 0.00 | 0.21 | 0.21 | 92 | 1018.4 |
| 20260507035856 | 31 | 75 | 0.0 | 1.7 | 0.00 | 0.21 | 0.21 | 91 | 1018.6 |
| 20260507025848 | 32 | 286 | 0.0 | 0.9 | 0.00 | 0.21 | 0.21 | 84 | 1018.6 |
| 20260507015841 | 34 | 293 | 0.0 | 2.6 | 0.00 | 0.21 | 0.21 | 77 | 1018.8 |
| 20260507005902 | 39 | 50 | 0.9 | 3.5 | 0.01 | 0.22 | 0.21 | 68 | 1019.7 |
| 20260506235855 | 39 | 104 | 0.9 | 2.6 | 0.01 | 0.22 | 0.20 | 67 | 1019.1 |
| 20260506215847 | 39 | 315 | 1.7 | 3.5 | 0.09 | 0.21 | 0.16 | 64 | 1019.3 |
| 20260506205842 | 37 | 18 | 0.9 | 3.5 | 0.07 | 0.13 | 0.07 | 70 | 1019.7 |
| 20260506185902 | 34 | 48 | 1.7 | 4.3 | 0.00 | 0.09 | 0.00 | 78 | 1018.8 |
| 20260506165859 | 30 | 311 | 1.7 | 4.3 | 0.00 | 0.14 | 0.00 | 87 | 1017.7 |